sat.trackr.live / text

‹ back to catalog

SEMI-1N

NORAD 66297 · 2025-248E

PAYLOAD ACTIVE UNKNOWN

§ Identity

Operator
Country
TURK
Launch date
2025-11-02
Launch site
AFETR
Launch vehicle
Mass (kg)
RCS (m²)

External: N2YO · Heavens-Above · Gunter

§ Orbital elements

Epoch: 2026-09-19T04:57:58.015008Z

Period
94.62 min
Inclination
45.4069°
Eccentricity
0.0010234
Mean motion
15.21841274 rev/d
Perigee alt
493.2 km
Apogee alt
507.3 km
Semi-major
6,878.4 km
B*
1.5812e-4
RAAN
333.4481°
Arg perigee
214.1892°
Mean anomaly
145.8337°
Rev number
4,887

§ Raw data

SEMI-1N1 66297U 25248E   26262.20692147  .00003375  00000+0  15812-3 0  99972 66297  45.4069 333.4481 0010234 214.1892 145.8337 15.21841274 48876

JSON: /api/v1/satellites/66297 · /tle

For live sub-satellite position, see the globe view (requires WebGL).

§ Visibility from observer

Set your observer location to see the next 7 days of passes ≥ 10°. The values pass through the URL so the page stays shareable.

No JS? Fill the form by hand. The geolocation button needs JavaScript.